Time,TemperatureF,DewpointF,PressureIn,WindDirection,WindDirectionDegrees,WindSpeedMPH,WindSpeedGustMPH,Humidity,HourlyPrecipIn,Conditions,Clouds,dailyrainin,SolarRadiationWatts/m^2,SoftwareType,DateUTC
2013-06-13 00:11:00,44.0,43.0,-100.00,ENE,64,1.0,5.0,95,0.00,,,0.21,0.000000,,2013-06-13 06:11:00,
2013-06-13 00:22:00,44.0,43.0,-100.00,ENE,64,1.0,5.0,95,0.00,,,0.21,0.000000,,2013-06-13 06:22:00,
2013-06-13 00:33:00,44.0,43.0,-100.00,ENE,64,1.0,5.0,95,0.00,,,0.21,0.000000,,2013-06-13 06:33:00,
2013-06-13 00:44:00,44.0,43.0,-100.00,ENE,64,1.0,5.0,95,0.00,,,0.21,0.000000,,2013-06-13 06:44:00,
2013-06-13 01:11:00,46.0,44.0,-100.00,North,10,2.0,5.0,93,0.00,,,0.21,0.000000,,2013-06-13 07:11:00,
2013-06-13 01:22:00,46.0,44.0,-100.00,North,10,2.0,5.0,93,0.00,,,0.21,0.000000,,2013-06-13 07:22:00,
2013-06-13 01:33:00,46.0,44.0,-100.00,North,10,2.0,5.0,93,0.00,,,0.21,0.000000,,2013-06-13 07:33:00,
2013-06-13 01:42:00,46.0,44.0,-100.00,North,10,2.0,5.0,93,0.00,,,0.21,0.000000,,2013-06-13 07:42:00,
2013-06-13 02:11:00,46.0,45.0,-100.00,NE,50,2.0,4.0,96,0.00,,,0.21,0.000000,,2013-06-13 08:11:00,
2013-06-13 02:22:00,46.0,45.0,-100.00,NE,50,2.0,4.0,96,0.00,,,0.21,0.000000,,2013-06-13 08:22:00,
2013-06-13 02:32:00,46.0,45.0,-100.00,NE,50,2.0,4.0,96,0.00,,,0.21,0.000000,,2013-06-13 08:32:00,
2013-06-13 02:42:00,46.0,45.0,-100.00,NE,50,2.0,4.0,96,0.00,,,0.21,0.000000,,2013-06-13 08:42:00,
2013-06-13 03:11:00,48.0,44.0,-100.00,ENE,60,3.0,7.0,87,0.01,,,0.22,0.000000,,2013-06-13 09:11:00,
2013-06-13 03:22:00,48.0,44.0,-100.00,ENE,60,3.0,7.0,87,0.01,,,0.22,0.000000,,2013-06-13 09:22:00,
2013-06-13 03:32:00,48.0,44.0,-100.00,ENE,60,3.0,7.0,87,0.01,,,0.22,0.000000,,2013-06-13 09:32:00,
2013-06-13 03:42:00,48.0,44.0,-100.00,ENE,60,3.0,7.0,87,0.01,,,0.22,0.000000,,2013-06-13 09:42:00,
2013-06-13 04:11:00,47.0,45.0,-100.00,NE,46,3.0,8.0,92,0.00,,,0.22,0.000000,,2013-06-13 10:11:00,
2013-06-13 04:22:00,47.0,45.0,-100.00,NE,46,3.0,8.0,92,0.00,,,0.22,0.000000,,2013-06-13 10:22:00,
2013-06-13 04:33:00,47.0,45.0,-100.00,NE,46,3.0,8.0,92,0.00,,,0.22,0.000000,,2013-06-13 10:33:00,
2013-06-13 04:42:00,47.0,45.0,-100.00,NE,46,3.0,8.0,92,0.00,,,0.22,0.000000,,2013-06-13 10:42:00,
2013-06-13 05:11:00,48.0,43.0,-100.00,NE,44,2.0,9.0,84,0.01,,,0.23,0.000000,,2013-06-13 11:11:00,
2013-06-13 05:23:00,48.0,43.0,-100.00,NE,44,2.0,9.0,84,0.01,,,0.23,0.000000,,2013-06-13 11:23:00,
2013-06-13 05:32:00,48.0,43.0,-100.00,NE,44,2.0,9.0,84,0.01,,,0.23,0.000000,,2013-06-13 11:32:00,
2013-06-13 05:42:00,48.0,43.0,-100.00,NE,44,2.0,9.0,84,0.01,,,0.23,0.000000,,2013-06-13 11:42:00,
2013-06-13 06:11:00,48.0,43.0,-100.00,ENE,68,3.0,11.0,83,0.00,,,0.22,1.000000,,2013-06-13 12:11:00,
2013-06-13 06:22:00,48.0,43.0,-100.00,ENE,68,3.0,11.0,83,0.00,,,0.22,1.000000,,2013-06-13 12:22:00,
2013-06-13 06:34:00,48.0,43.0,-100.00,ENE,68,3.0,11.0,83,0.00,,,0.22,1.000000,,2013-06-13 12:34:00,
2013-06-13 06:42:00,48.0,43.0,-100.00,ENE,68,3.0,11.0,83,0.00,,,0.22,1.000000,,2013-06-13 12:42:00,
2013-06-13 07:11:00,47.0,44.0,-100.00,ENE,77,1.0,9.0,90,0.00,,,0.22,29.000000,,2013-06-13 13:11:00,
2013-06-13 07:21:00,47.0,44.0,-100.00,ENE,77,1.0,9.0,90,0.00,,,0.22,29.000000,,2013-06-13 13:21:00,
2013-06-13 07:32:00,47.0,44.0,-100.00,ENE,77,1.0,9.0,90,0.00,,,0.22,29.000000,,2013-06-13 13:32:00,
2013-06-13 07:43:00,47.0,44.0,-100.00,ENE,77,1.0,9.0,90,0.00,,,0.22,29.000000,,2013-06-13 13:43:00,
2013-06-13 08:11:00,54.0,45.0,-100.00,ENE,72,3.0,9.0,72,0.00,,,0.22,90.000000,,2013-06-13 14:11:00,
2013-06-13 08:22:00,54.0,45.0,-100.00,ENE,72,3.0,9.0,72,0.00,,,0.22,90.000000,,2013-06-13 14:22:00,
2013-06-13 08:33:00,54.0,45.0,-100.00,ENE,72,3.0,9.0,72,0.00,,,0.22,90.000000,,2013-06-13 14:33:00,
2013-06-13 08:43:00,54.0,45.0,-100.00,ENE,72,3.0,9.0,72,0.00,,,0.22,90.000000,,2013-06-13 14:43:00,
2013-06-13 09:12:00,51.0,49.0,-100.00,NNE,13,1.0,7.0,92,0.00,,,0.22,33.000000,,2013-06-13 15:12:00,
2013-06-13 09:21:00,51.0,49.0,-100.00,NNE,13,1.0,7.0,92,0.00,,,0.22,33.000000,,2013-06-13 15:21:00,
2013-06-13 09:33:00,51.0,49.0,-100.00,NNE,13,1.0,7.0,92,0.00,,,0.22,33.000000,,2013-06-13 15:33:00,
2013-06-13 09:43:00,51.0,49.0,-100.00,NNE,13,1.0,7.0,92,0.00,,,0.22,33.000000,,2013-06-13 15:43:00,
2013-06-13 10:11:00,60.0,46.0,-100.00,NW,307,0.0,5.0,59,0.00,,,0.21,387.000000,,2013-06-13 16:11:00,
2013-06-13 10:22:00,60.0,46.0,-100.00,NW,307,0.0,5.0,59,0.00,,,0.21,387.000000,,2013-06-13 16:22:00,
2013-06-13 10:33:00,60.0,46.0,-100.00,NW,307,0.0,5.0,59,0.00,,,0.21,387.000000,,2013-06-13 16:33:00,
2013-06-13 10:43:00,60.0,46.0,-100.00,NW,307,0.0,5.0,59,0.00,,,0.21,387.000000,,2013-06-13 16:43:00,
2013-06-13 11:11:00,66.0,45.0,-100.00,NNE,14,2.0,5.0,46,0.00,,,0.21,675.000000,,2013-06-13 17:11:00,
2013-06-13 11:24:00,66.0,45.0,-100.00,NNE,14,2.0,5.0,46,0.00,,,0.21,675.000000,,2013-06-13 17:24:00,
2013-06-13 11:32:00,66.0,45.0,-100.00,NNE,14,2.0,5.0,46,0.00,,,0.21,675.000000,,2013-06-13 17:32:00,
2013-06-13 11:43:00,66.0,45.0,-100.00,NNE,14,2.0,5.0,46,0.00,,,0.21,675.000000,,2013-06-13 17:43:00,
2013-06-13 12:11:00,69.0,44.0,-100.00,SSE,147,3.0,6.0,41,0.00,,,0.21,589.000000,,2013-06-13 18:11:00,
2013-06-13 12:22:00,69.0,44.0,-100.00,SSE,147,3.0,6.0,41,0.00,,,0.21,589.000000,,2013-06-13 18:22:00,
2013-06-13 12:33:00,69.0,44.0,-100.00,SSE,147,3.0,6.0,41,0.00,,,0.21,589.000000,,2013-06-13 18:33:00,
2013-06-13 12:43:00,69.0,44.0,-100.00,SSE,147,3.0,6.0,41,0.00,,,0.21,589.000000,,2013-06-13 18:43:00,
2013-06-13 13:11:00,69.0,45.0,-100.00,WSW,255,6.0,13.0,42,0.00,,,0.21,810.000000,,2013-06-13 19:11:00,
2013-06-13 13:22:00,69.0,45.0,-100.00,WSW,255,6.0,13.0,42,0.00,,,0.21,810.000000,,2013-06-13 19:22:00,
2013-06-13 13:32:00,69.0,45.0,-100.00,WSW,255,6.0,13.0,42,0.00,,,0.21,810.000000,,2013-06-13 19:32:00,
2013-06-13 13:43:00,69.0,45.0,-100.00,WSW,255,6.0,13.0,42,0.00,,,0.21,810.000000,,2013-06-13 19:43:00,
2013-06-13 14:11:00,67.0,53.0,-100.00,WSW,247,6.0,13.0,60,0.00,,,0.19,913.000000,,2013-06-13 20:11:00,
2013-06-13 14:22:00,67.0,53.0,-100.00,WSW,247,6.0,13.0,60,0.00,,,0.19,913.000000,,2013-06-13 20:22:00,
2013-06-13 14:32:00,67.0,53.0,-100.00,WSW,247,6.0,13.0,60,0.00,,,0.19,913.000000,,2013-06-13 20:32:00,
2013-06-13 14:43:00,67.0,53.0,-100.00,WSW,247,6.0,13.0,60,0.00,,,0.19,913.000000,,2013-06-13 20:43:00,
2013-06-13 15:11:00,64.0,50.0,-100.00,WSW,243,4.0,13.0,60,0.00,,,0.04,688.000000,,2013-06-13 21:11:00,
2013-06-13 15:22:00,64.0,50.0,-100.00,WSW,243,4.0,13.0,60,0.00,,,0.04,688.000000,,2013-06-13 21:22:00,
2013-06-13 15:34:00,64.0,50.0,-100.00,WSW,243,4.0,13.0,60,0.00,,,0.04,688.000000,,2013-06-13 21:34:00,
2013-06-13 15:43:00,64.0,50.0,-100.00,WSW,243,4.0,13.0,60,0.00,,,0.04,688.000000,,2013-06-13 21:43:00,
2013-06-13 16:11:00,67.0,47.0,-100.00,SSW,208,5.0,11.0,49,-99.99,,,0.04,758.000000,,2013-06-13 22:11:00,
2013-06-13 16:22:00,67.0,47.0,-100.00,SSW,208,5.0,11.0,49,-99.99,,,0.04,758.000000,,2013-06-13 22:22:00,
2013-06-13 16:32:00,67.0,47.0,-100.00,SSW,208,5.0,11.0,49,-99.99,,,0.04,758.000000,,2013-06-13 22:32:00,
2013-06-13 16:42:00,67.0,47.0,-100.00,SSW,208,5.0,11.0,49,-99.99,,,0.04,758.000000,,2013-06-13 22:42:00,
2013-06-13 17:11:00,62.0,44.0,-100.00,SSW,210,3.0,10.0,52,0.00,,,0.04,248.000000,,2013-06-13 23:11:00,
2013-06-13 18:11:00,66.0,38.0,-100.00,WSW,251,4.0,11.0,36,0.00,,,0.03,551.000000,,2013-06-14 00:11:00,
2013-06-13 18:22:00,66.0,38.0,-100.00,WSW,251,4.0,11.0,36,0.00,,,0.03,551.000000,,2013-06-14 00:22:00,
2013-06-13 18:33:00,66.0,38.0,-100.00,WSW,251,4.0,11.0,36,0.00,,,0.03,551.000000,,2013-06-14 00:33:00,
2013-06-13 18:43:00,66.0,38.0,-100.00,WSW,251,4.0,11.0,36,0.00,,,0.03,551.000000,,2013-06-14 00:43:00,
2013-06-13 19:11:00,60.0,39.0,-100.00,WSW,240,2.0,8.0,45,0.00,,,0.02,98.000000,,2013-06-14 01:11:00,
2013-06-13 19:22:00,60.0,39.0,-100.00,WSW,240,2.0,8.0,45,0.00,,,0.02,98.000000,,2013-06-14 01:22:00,
2013-06-13 19:32:00,60.0,39.0,-100.00,WSW,240,2.0,8.0,45,0.00,,,0.02,98.000000,,2013-06-14 01:32:00,
2013-06-13 19:43:00,60.0,39.0,-100.00,WSW,240,2.0,8.0,45,0.00,,,0.02,98.000000,,2013-06-14 01:43:00,
2013-06-13 20:22:00,56.0,30.0,-100.00,WSW,252,6.0,16.0,37,0.00,,,0.02,22.000000,,2013-06-14 02:22:00,
2013-06-13 20:32:00,56.0,30.0,-100.00,WSW,252,6.0,16.0,37,0.00,,,0.02,22.000000,,2013-06-14 02:32:00,
2013-06-13 20:43:00,56.0,30.0,-100.00,WSW,252,6.0,16.0,37,0.00,,,0.02,22.000000,,2013-06-14 02:43:00,
2013-06-13 21:43:00,47.0,37.0,-100.00,West,264,5.0,17.0,67,0.01,,,0.03,7.000000,,2013-06-14 03:43:00,
2013-06-13 22:12:00,43.0,41.0,-100.00,SE,129,2.0,15.0,92,0.05,,,0.08,1.000000,,2013-06-14 04:12:00,
2013-06-13 22:22:00,43.0,41.0,-100.00,SE,129,2.0,15.0,92,0.05,,,0.08,1.000000,,2013-06-14 04:22:00,
2013-06-13 22:33:00,43.0,41.0,-100.00,SE,129,2.0,15.0,92,0.05,,,0.08,1.000000,,2013-06-14 04:33:00,
2013-06-13 22:43:00,43.0,41.0,-100.00,SE,129,2.0,15.0,92,0.05,,,0.08,1.000000,,2013-06-14 04:43:00,
2013-06-13 23:11:00,42.0,40.0,-100.00,ENE,62,4.0,10.0,94,0.01,,,0.09,0.000000,,2013-06-14 05:11:00,
2013-06-13 23:22:00,42.0,40.0,-100.00,ENE,62,4.0,10.0,94,0.01,,,0.09,0.000000,,2013-06-14 05:22:00,
2013-06-13 23:33:00,42.0,40.0,-100.00,ENE,62,4.0,10.0,94,0.01,,,0.09,0.000000,,2013-06-14 05:33:00,
2013-06-13 23:43:00,42.0,40.0,-100.00,ENE,62,4.0,10.0,94,0.01,,,0.09,0.000000,,2013-06-14 05:43:00,